Mason City, IA

4:43 PM CDT on September 24, 2017 (GMT -0500)
Mason City Municipal

Weather History for KMCW - October, 2013

Change the Weather History Date:

Sunday, October 27, 2013

  Actual Average Record
Temperature  
Mean Temperature 43 °F 44 °F  
Max Temperature 62 °F 55 °F 82 °F (1966)
Min Temperature 23 °F 33 °F 13 °F (1997)
Degree Days  
Heating Degree Days 22 21  
Month to date heating degree days 431 435  
Since 1 July heating degree days 589 648  
Cooling Degree Days 0 0  
Month to date cooling degree days 6 2  
Year to date cooling degree days 718 612  
Moisture  
Dew Point 29 °F    
Average Humidity 64    
Maximum Humidity 92    
Minimum Humidity 36    
Precipitation  
Precipitation 0.00 in 0.06 in 1.95 in (1918)
Month to date precipitation 1.84 2.17  
Year to date precipitation 36.34 31.80  
Snow  
Snow 0.00 in 0.00 in 3.00 in (1925)
Month to date snowfall T 0.2  
Since 1 July snowfall T 0.2  
Since 1 September snowfall T 0.2  
Snow Depth 0.00 in    
Sea Level Pressure  
Sea Level Pressure 29.97 in    
Wind  
Wind Speed 9 mph (SSW)    
Max Wind Speed 20 mph    
Max Gust Speed 25 mph    
Visibility 10 miles    
Events      
T = Trace of Precipitation, MM = Missing Value Source: NWS Daily Summary

Daily Weather History Graph

Daily Weather History Graph

Search for Another Location

Airport or City:

Trip Planner

Search our weather history database for the weather conditions in past years. The results will help you decide how hot, cold, wet, or windy it might be!

Date:

Astronomy

Oct. 27, 2013 Rise Set
Actual Time 7:42 AM CDT 6:11 PM CDT
Civil Twilight 7:12 AM CDT 6:40 PM CDT
Nautical Twilight 6:39 AM CDT 7:14 PM CDT
Astronomical Twilight 6:06 AM CDT 7:47 PM CDT
Moon 12:29 AM CDT (10/27) 2:30 PM CDT (10/27)
Length of Visible Light 11h 28m
Length of Day
10h 29m
Last Quarter, 43% of the Moon is Illuminated
Oct 27
Last Quarter
Nov 3
New
Nov 9
First Quarter
Nov 17
Full
Nov 25
Last Quarter

Hourly Weather History & Observations

Time (CDT) Temp. Windchill Dew Point Humidity Pressure Visibility Wind Dir Wind Speed Gust Speed Precip Events Conditions
12:53 AM 27.0 °F 21.6 °F 24.1 °F 89% 30.10 in 10.0 mi WSW 4.6 mph - N/A   Clear
1:53 AM 28.0 °F 24.2 °F 24.1 °F 85% 30.08 in 10.0 mi WSW 3.5 mph - N/A   Clear
2:53 AM 26.1 °F 21.9 °F 24.1 °F 92% 30.06 in 10.0 mi SW 3.5 mph - N/A   Clear
3:53 AM 27.0 °F 23.0 °F 24.1 °F 89% 30.04 in 10.0 mi SSW 3.5 mph - N/A   Clear
4:53 AM 24.1 °F 17.0 °F 21.9 °F 91% 30.03 in 10.0 mi SSW 5.8 mph - N/A   Clear
5:53 AM 27.0 °F 20.5 °F 24.1 °F 89% 30.03 in 10.0 mi SW 5.8 mph - N/A   Clear
6:53 AM 23.0 °F 17.0 °F 19.9 °F 88% 30.02 in 10.0 mi SSW 4.6 mph - N/A   Clear
7:53 AM 24.1 °F 18.2 °F 21.0 °F 88% 30.01 in 10.0 mi SSE 4.6 mph - N/A   Clear
8:53 AM 33.1 °F 25.5 °F 28.0 °F 82% 30.01 in 10.0 mi SSW 9.2 mph - N/A   Clear
9:53 AM 39.0 °F 31.4 °F 30.0 °F 70% 29.99 in 10.0 mi SSW 12.7 mph - N/A   Clear
10:53 AM 46.0 °F 39.9 °F 30.9 °F 56% 29.96 in 10.0 mi SSW 13.8 mph - N/A   Clear
11:53 AM 52.0 °F - 28.9 °F 41% 29.94 in 10.0 mi SSW 13.8 mph 21.9 mph N/A   Clear
12:53 PM 55.9 °F - 30.9 °F 39% 29.90 in 10.0 mi SSW 20.7 mph - N/A   Clear
1:53 PM 59.0 °F - 32.0 °F 36% 29.87 in 10.0 mi South 12.7 mph 20.7 mph N/A   Clear
2:53 PM 61.0 °F - 33.1 °F 35% 29.84 in 10.0 mi South 13.8 mph 21.9 mph N/A   Clear
3:53 PM 61.0 °F - 33.1 °F 35% 29.84 in 10.0 mi South 13.8 mph 21.9 mph N/A   Clear
4:53 PM 61.0 °F - 33.1 °F 35% 29.85 in 10.0 mi SSW 13.8 mph - N/A   Clear
5:53 PM 54.0 °F - 35.1 °F 49% 29.86 in 10.0 mi SSE 6.9 mph - N/A   Clear
6:53 PM 46.9 °F - 34.0 °F 61% 29.90 in 10.0 mi South 8.1 mph - N/A   Clear
7:53 PM 44.1 °F 39.5 °F 33.1 °F 65% 29.92 in 10.0 mi South 8.1 mph - N/A   Clear
8:53 PM 37.9 °F 34.4 °F 32.0 °F 79% 29.93 in 10.0 mi South 4.6 mph - N/A   Clear
9:53 PM 39.9 °F 34.5 °F 33.1 °F 77% 29.96 in 10.0 mi NNE 8.1 mph - N/A   Clear
10:53 PM 41.0 °F 35.2 °F 34.0 °F 76% 30.00 in 10.0 mi North 9.2 mph - N/A   Clear
11:53 PM 42.1 °F 35.2 °F 33.1 °F 70% 30.02 in 10.0 mi NNE 12.7 mph - N/A   Clear